Retour au catalogue

COSMOS 2251 DEB

ActifLEO
NORAD 34136·DEBRIS·🇷🇺 Russia

Lancé Jun 16, 1993 depuis Plesetsk Cosmodrome

Loading…

Prochains Passages (prochaines 24 heures)

TLE

FraisSource: Space-Track

Époque: Sep 14, 2026, 20:50 UTC

1 34136U 93036LH  26257.86859020  .00002391  00000-0  28945-3 0  9994
2 34136  74.0187 217.2353 0086171 268.2522 113.5394 14.81682631940985

Suivez COSMOS 2251 DEB en temps réel avec AllMySat

Download on the App Store